This is the latest recevied weather packets stored in our database for station/object K2RMB. If no packets are shown the sender has not sent any weather packets the latest 10 day(s).
| Time | Temp. | Humidity | Pressure | Rain* | Wind** | Luminosity | Snow |
|---|---|---|---|---|---|---|---|
| 1777410555 | 20° C | 37% | 1018.1 hPa | 0 mm | - | 157 W/m² | - |
| 1777410255 | 19.44° C | 40% | 1018.1 hPa | 0 mm | - | 168 W/m² | - |
| 1777409950 | 20° C | 37% | 1017.8 hPa | 0 mm | - | 176 W/m² | - |
| 1777409645 | 20° C | 36% | 1017.8 hPa | 0 mm | - | 177 W/m² | - |
| 1777409341 | 20° C | 36% | 1017.8 hPa | 0 mm | - | 183 W/m² | - |
| 1777409036 | 20° C | 37% | 1018.1 hPa | 0 mm | - | 189 W/m² | - |
| 1777408734 | 20° C | 37% | 1018.1 hPa | 0 mm | - | 194 W/m² | - |
| 1777408430 | 20.56° C | 35% | 1018.4 hPa | 0 mm | - | 203 W/m² | - |
| 1777408124 | 20.56° C | 37% | 1018.1 hPa | 0 mm | - | 208 W/m² | - |
| 1777407820 | 20° C | 39% | 1018.4 hPa | 0 mm | - | 207 W/m² | - |
| 1777407517 | 20° C | 36% | 1018.4 hPa | 0 mm | - | 205 W/m² | - |
| 1777407217 | 20° C | 36% | 1018.4 hPa | 0 mm | - | 211 W/m² | - |
| 1777406912 | 20.56° C | 35% | 1018.8 hPa | 0 mm | - | 220 W/m² | - |
| 1777406607 | 20.56° C | 39% | 1018.8 hPa | 0 mm | - | 231 W/m² | - |
| 1777406303 | 20° C | 34% | 1018.8 hPa | 0 mm | - | 247 W/m² | - |
| 1777406002 | 20.56° C | 35% | 1018.8 hPa | 0 mm | - | 261 W/m² | - |
| 1777405699 | 20.56° C | 33% | 1018.8 hPa | 0 mm | - | 282 W/m² | - |
| 1777405396 | 20.56° C | 33% | 1018.8 hPa | 0 mm | - | 323 W/m² | - |
| 1777405092 | 20.56° C | 33% | 1018.8 hPa | 0 mm | - | 340 W/m² | - |
| 1777404786 | 21.11° C | 33% | 1019.2 hPa | 0 mm | - | 336 W/m² | - |
| 1777404483 | 21.11° C | 33% | 1019.2 hPa | 0 mm | - | 382 W/m² | - |
| 1777404178 | 20.56° C | 34% | 1019.2 hPa | 0 mm | - | 372 W/m² | - |
| 1777403875 | 21.11° C | 33% | 1019.2 hPa | 0 mm | - | 352 W/m² | - |
| 1777403569 | 21.11° C | 33% | 1019.2 hPa | 0 mm | - | 355 W/m² | - |
| 1777403269 | 21.11° C | 33% | 1019.2 hPa | 0 mm | - | 373 W/m² | - |
* Rain latest hour (hover to see other rain measurements)
** Current wind speed in m/s (hover to see current wind gust speed)